NOAA 16 DEB, 41077

Orbit data source: Space-Track

NOAA 16 DEB, 41077 is space debris in SSO originally from a launch on Thu, 21 Sep 2000 UTC launched from the Air Force Western Test Range (AFWTR). Debris objects in space refer to the collection of defunct objects orbiting the Earth. Examples of debris include non-operational satellites, rocket bodies, and fragments generated from explosions, collisions, or faulty payload assembly.

Loading next visibility...
NOAA 16 DEB details
Identifier
41077, 2000-055AL
Orbit
SSO
Last TLE update23 hours ago
Origin
Flag of USNOAA (US)
ManufacturerUnknown
MissionSpacecraft
Bus & MotorUnknown
MassUnknown
Launch date (UTC)
2000-09-21 (24 years ago)
Launch vehicleUnknown
Launch site
Air Force Western Test Range (AFWTR)
Object type
Payload
Rocket body
Debris
Shape & HBRUnknown
Radar Cross SectionSmall (<0.1 m²)

Expand to show TLE details & history

TLE from 23 hours ago
0 NOAA 16 DEB
1 41077U 00055AL  25024.81910536  .00001041  00000-0  78623-3 0  9990
2 41077  98.8390  54.7596 0114626 143.6809 217.2201 13.93199957465438
Epoch: 2025-01-24T19:39Z
Definitive object data (Epoch: 2025-01-24T19:39:30.703Z)
Latitude-0.00004°
Longitude-4.49513°
Altitude987.265 km
Speed7.324 km/s
True Right ascension03h 39m 02s
True Declination0° 00' 00"
Sunlit
Object was in daylight at TLE epoch
Visualization TLE readout
Latitude69.81554°
Longitude-28.47349°
Altitude899.174 km
Speed7.424 km/s
Apparent Right ascension06h 00m 26s
Apparent Declination25° 44' 07"
Sunlit
Object is in daylight
Visualization observer readout
Local Sidereal Time19:45:22
Azimuth25.061° NE
Elevation-19.946°
Doppler factor1
Orbital elements
Apogee altitude998.233 km
Perigee altitude831.044 km
Semi-major axis7,292.775 km
Eccentricity0.0114626
Inclination98.839°
RAAN54.7596°
Arg. of periapsis143.6809°
True anomaly216.43457°
Mean anomaly217.2201°
Eccentric anomaly216.82644°
Mean motion3.48501 °/min
BSTAR0.00078623
Orbital period103.3 mins
Loading maneuver chart data...
Loading historical data...
Loading historical data...
Loading historical data...
Loading historical data...
Loading historical data...
Loading historical data...
Loading historical data...

NOAA 16 DEB Visibility forecast

Observer location: undefined°, undefined

Span
Click to sort rows by Start time (UTC) header in descending order
Start Az.
Max El. time (UTC)
Max El. Az.
Max El.
End time (UTC)
End Az.
10 mins2025-01-26 01:04:36.268Z136.475° SSE2025-01-26 01:09:36.268Z79.772° E32.976°2025-01-26 01:14:36.268Z4.434° NNE
8 mins2025-01-26 02:48:36.268Z216.449° SW2025-01-26 02:52:36.268Z272.544° WNW25.253°2025-01-26 02:56:36.268Z319.904° NNW
6 mins2025-01-26 13:39:36.268Z61.244° ENE2025-01-26 13:41:36.268Z89.045° E19.751°2025-01-26 13:45:36.268Z139.833° SSE
8 mins2025-01-26 15:20:36.268Z354.576° N2025-01-26 15:24:36.268Z276.129° WNW35.398°2025-01-26 15:28:36.268Z220.707° SW
|